Regional Weather Roundup
Issued by NWS State College, PA

Home | Current Version | Previous Version | Graphics & Text | Print | Product List | Glossary Off
Versions: 1 2 3 4 5 6 7 8 9 10 11 12 13 14 15 16 17 18 19 20 21 22 23 24 25 26 27 28 29 30 31 32 33 34 35 36 37 38 39 40 41 42 43 44 45 46 47 48 49 50

000
ASUS41 KCTP 260103
RWRCTP

REGIONAL WEATHER ROUNDUP
NATIONAL WEATHER SERVICE STATE COLLEGE PA
900 PM EDT MON JUL 25 2016

Note: "fair" indicates few or no clouds below 12,000 feet with no
significant weather and/or obstructions to visibility.

* = STATION THAT DOES NOT REPORT PRECIPITATION /E.G. RAIN...SNOW...ETC/
    THUNDER OR FOG.

PAZ002>004-007>009-013>016-020>023-029>032-260200-
WESTERN PENNSYLVANIA

CITY           SKY/WX    TMP DP  RH WIND       PRES   REMARKS
ERIE           MOCLDY    80  69  69 SW6       29.93R
MEADVILLE      CLEAR     74  65  73 W3        29.98R
FRANKLIN*      PTCLDY    75  66  73 NW3       30.00R
NEW CASTLE     MOCLDY    82  71  69 N3        29.97R
BEAVER COUNTY  CLEAR     81  66  61 W5        29.96S
BUTLER*        CLEAR     81  66  61 CALM      29.99R
PITTSBURGH INT MOCLDY    83  66  56 VRB3      29.96R
PITTSBURGH     CLEAR     78  69  73 S12       29.97R
INDIANA*       CLEAR     77  73  88 SW3       30.00S
LATROBE        MOCLDY    77  73  88 SW9       29.98R
WASHINGTON CO* MOCLDY    75  70  83 S7        30.00R
$$

PAZ004>006-010>012-017>019-024>028-033>037-041-042-045-046-049>053-260200-
CENTRAL PENNSYLVANIA

CITY           SKY/WX    TMP DP  RH WIND       PRES   REMARKS
BRADFORD       CLEAR     73  66  78 W3        30.00R
DUBOIS         PTCLDY    77  70  79 NW6       29.98R
CLEARFIELD     CLEAR     75  72  90 CALM      29.97R FOG
JOHNSTOWN      CLEAR     74  67  78 W8        30.02R
ALTOONA        PTCLDY    77  68  73 W3        29.97R
STATE COLLEGE  CLEAR     75  72  88 CALM      29.95R
WILLIAMSPORT   CLEAR     73  67  81 CALM      29.90F
SELINSGROVE    PTCLDY    72  72 100 CALM      29.92F
FT INDIANTOWN  CLOUDY    71  69  96 CALM      29.92S
CAPITAL CITY   CLOUDY    76  72  87 SE3       29.91S
HARRISBURG     CLOUDY    75  73  93 VRB5      29.91S
YORK           CLOUDY    73  72  96 CALM      29.91R
$$

PAZ038>040-043-044-047-048-054-055-060>062-067>071-260200-
EASTERN PENNSYLVANIA

CITY           SKY/WX    TMP DP  RH WIND       PRES   REMARKS
SCRANTON       PTCLDY    71  70  96 SW6       29.91R
MOUNT POCONO   CLOUDY    68  66  93 W3        29.94S
ALLENTOWN      CLOUDY    72  69  90 SW5       29.89F
QUAKERTOWN*    CLOUDY    72  72 100 CALM      29.91F
READING        CLOUDY    73  69  87 S5        29.90R
LANCASTER      CLOUDY    71  70  96 CALM      29.93R
COATESVILLE    LGT RAIN  72  70  94 CALM      29.96R
POTTSTOWN      CLOUDY    71  71 100 SW3       29.94R
BLUE BELL      CLOUDY    72  72 100 S5        29.91R
DOYLESTOWN     LGT RAIN  71  71 100 S3        29.90F
WILLOW GROVE   NOT AVBL
NORTH PHILA    CLOUDY    75  73  93 VRB3      29.93F
PHILADELPHIA   CLOUDY    75  72  90 S9        29.92F
$$



USA.gov is the U.S. government's official web portal to all federal, state and local government web resources and services.